DW5204 Weather Reports


Display with metric or nautical units.
time (UTC)temp
F
wind
direction
speed
MPH
gust
MPH
rain 1hr
in
rain 24hr
in
rain mn
in
humidity
%
barometer
mb
20260506024425 66 4 7.0 9.0 0.00 0.00 0.00 77 1008.7
20260506023921 66 33 6.0 8.0 0.00 0.00 0.00 77 1008.6
20260506023418 66 87 5.0 7.0 0.00 0.00 0.00 77 1008.2
20260506022914 68 10 10.0 13.0 0.00 0.00 0.00 77 1008.0
20260506022412 68 17 11.0 14.0 0.00 0.00 0.00 77 1007.7
20260506021910 68 30 10.0 11.0 0.00 0.00 0.00 76 1007.8
20260506021407 68 17 7.0 9.0 0.00 0.00 0.00 76 1007.6
20260506020903 69 16 9.0 10.0 0.00 0.00 0.00 76 1007.5
20260506020402 69 7 7.0 9.0 0.00 0.00 0.00 75 1007.2
20260506015859 69 358 4.0 7.0 0.00 0.00 0.00 75 1007.2
20260506015356 69 339 8.0 10.0 0.00 0.00 0.00 74 1007.2
20260506014853 69 32 9.0 11.0 0.00 0.00 0.00 74 1007.1
20260506014350 69 9 9.0 10.0 0.00 0.00 0.00 74 1007.0
20260506013846 69 23 7.0 8.0 0.00 0.00 0.00 74 1006.8
20260506013344 70 16 9.0 13.0 0.00 0.00 0.00 75 1006.8
20260506012840 71 36 15.0 21.0 0.00 0.00 0.00 74 1006.8
20260506012337 72 324 4.0 5.0 0.00 0.00 0.00 73 1006.5
20260506011834 72 350 3.0 5.0 0.00 0.00 0.00 72 1006.5
20260506011331 72 4 5.0 7.0 0.00 0.00 0.00 72 1006.5
20260506010828 72 351 3.0 5.0 0.00 0.00 0.00 72 1006.3
20260506010326 72 10 3.0 6.0 0.00 0.00 0.00 71 1006.3
20260506005823 72 332 5.0 7.0 0.00 0.00 0.00 71 1006.7
20260506005320 72 355 6.0 8.0 0.00 0.00 0.00 71 1006.4
20260506004816 73 6 8.0 10.0 0.00 0.00 0.00 70 1005.7
20260506004313 73 5 7.0 9.0 0.00 0.00 0.00 70 1005.8
20260506003809 73 40 5.0 6.0 0.00 0.00 0.00 69 1006.1
20260506003306 73 17 7.0 7.0 0.00 0.00 0.00 69 1006.0
20260506002802 73 7 4.0 5.0 0.00 0.00 0.00 69 1005.8
20260506002259 73 20 9.0 13.0 0.00 0.00 0.00 69 1005.5
20260506001754 74 328 6.0 8.0 0.00 0.00 0.00 69 1005.5
20260506001252 74 357 6.0 8.0 0.00 0.00 0.00 69 1005.7
20260506000749 74 95 5.0 7.0 0.00 0.00 0.00 68 1005.3
20260506000247 74 312 6.0 7.0 0.00 0.00 0.00 68 1005.6
20260505235743 75 334 11.0 17.0 0.00 0.00 0.00 67 1005.7
20260505235241 75 19 5.0 7.0 0.00 0.00 0.00 68 1005.4
20260505234737 75 293 11.0 14.0 0.00 0.00 0.00 67 1005.6
20260505234235 76 339 9.0 11.0 0.00 0.00 0.00 66 1005.4
20260505233731 77 21 9.0 11.0 0.00 0.00 0.00 66 1005.5
20260505233230 78 350 6.0 9.0 0.00 0.00 0.00 65 1005.1
20260505232726 78 53 7.0 9.0 0.00 0.00 0.00 64 1004.9
20260505232224 79 333 4.0 5.0 0.00 0.00 0.00 63 1005.1
20260505231720 79 347 5.0 6.0 0.00 0.00 0.00 62 1005.2
20260505231220 79 326 9.0 10.0 0.00 0.00 0.00 62 1005.1
20260505230717 80 31 7.0 11.0 0.00 0.00 0.00 62 1005.1
20260505230214 80 339 7.0 10.0 0.00 0.00 0.00 62 1004.8
20260505225710 81 10 5.0 7.0 0.00 0.00 0.00 62 1004.7
20260505225207 82 318 7.0 9.0 0.00 0.00 0.00 61 1004.5
20260505224702 84 338 9.0 11.0 0.00 0.00 0.00 59 1004.4
20260505224201 84 329 9.0 14.0 0.00 0.00 0.00 56 1004.4
20260505223658 85 297 5.0 7.0 0.00 0.00 0.00 52 1004.4
20260505223153 86 316 5.0 10.0 0.00 0.00 0.00 50 1004.2
20260505222650 86 357 6.0 8.0 0.00 0.00 0.00 49 1004.2
20260505222146 87 322 9.0 10.0 0.00 0.00 0.00 48 1004.0
20260505221643 87 298 4.0 6.0 0.00 0.00 0.00 47 1003.8
20260505221139 87 269 7.0 10.0 0.00 0.00 0.00 46 1003.7
20260505220637 87 333 6.0 8.0 0.00 0.00 0.00 46 1003.8
20260505220135 87 317 7.0 8.0 0.00 0.00 0.00 46 1003.7
20260505215632 88 214 5.0 7.0 0.00 0.00 0.00 46 1004.0
20260505215130 88 344 5.0 6.0 0.00 0.00 0.00 47 1003.7
20260505214628 92 285 11.0 14.0 0.00 0.00 0.00 49 1004.0
20260505214125 91 229 7.0 11.0 0.00 0.00 0.00 50 1003.8
20260505213623 91 207 5.0 8.0 0.00 0.00 0.00 48 1003.9
20260505213119 90 227 7.0 9.0 0.00 0.00 0.00 50 1003.9
20260505212615 91 358 4.0 6.0 0.00 0.00 0.00 49 1003.9
20260505212113 90 306 7.0 7.0 0.00 0.00 0.00 51 1003.8
20260505211609 91 262 8.0 10.0 0.00 0.00 0.00 49 1004.0
20260505211107 92 271 7.0 9.0 0.00 0.00 0.00 49 1004.2
20260505210603 93 96 1.0 2.0 0.00 0.00 0.00 49 1003.9
20260505210100 93 268 5.0 7.0 0.00 0.00 0.00 48 1004.1
20260505205558 93 202 5.0 7.0 0.00 0.00 0.00 48 1004.4
20260505205055 93 232 8.0 10.0 0.00 0.00 0.00 48 1004.3
20260505204552 94 242 5.0 7.0 0.00 0.00 0.00 49 1004.5
20260505204050 94 179 1.0 1.0 0.00 0.00 0.00 49 1004.4
20260505203546 93 236 7.0 8.0 0.00 0.00 0.00 51 1004.4
20260505203043 92 93 4.0 6.0 0.00 0.00 0.00 52 1004.4
20260505202539 93 206 8.0 11.0 0.00 0.00 0.00 51 1004.5
20260505202035 92 131 5.0 8.0 0.00 0.00 0.00 51 1004.6
20260505201532 91 253 3.0 6.0 0.00 0.00 0.00 53 1004.7
20260505201030 92 259 7.0 8.0 0.00 0.00 0.00 52 1004.6
20260505200527 92 301 5.0 6.0 0.00 0.00 0.00 52 1004.6
20260505200024 93 218 5.0 7.0 0.00 0.00 0.00 52 1004.4
20260505195520 92 142 5.0 8.0 0.00 0.00 0.00 52 1004.9
20260505195018 91 225 7.0 10.0 0.00 0.00 0.00 53 1004.8
20260505194515 90 226 3.0 6.0 0.00 0.00 0.00 55 1004.7
20260505194010 92 205 4.0 5.0 0.00 0.00 0.00 53 1004.8
20260505193508 91 192 7.0 9.0 0.00 0.00 0.00 53 1004.8
20260505193005 91 230 4.0 6.0 0.00 0.00 0.00 54 1004.9
20260505192503 91 228 7.0 8.0 0.00 0.00 0.00 53 1004.5
20260505192000 91 194 7.0 9.0 0.00 0.00 0.00 54 1004.7
20260505191459 90 303 7.0 10.0 0.00 0.00 0.00 56 1004.8
20260505190956 89 90 3.0 5.0 0.00 0.00 0.00 56 1004.7
20260505190450 89 229 7.0 9.0 0.00 0.00 0.00 56 1004.8
20260505185946 88 56 6.0 7.0 0.00 0.00 0.00 57 1004.7
20260505185444 87 206 5.0 6.0 0.00 0.00 0.00 59 1004.6
20260505184940 87 229 7.0 9.0 0.00 0.00 0.00 59 1004.8
20260505184437 87 190 7.0 11.0 0.00 0.00 0.00 59 1004.8
20260505183933 87 195 2.0 3.0 0.00 0.00 0.00 59 1004.8
20260505183430 87 197 9.0 15.0 0.00 0.00 0.00 58 1004.7
20260505182927 87 224 9.0 13.0 0.00 0.00 0.00 59 1004.6
20260505182424 87 221 7.0 10.0 0.00 0.00 0.00 59 1004.7
20260505181920 87 310 4.0 6.0 0.00 0.00 0.00 59 1004.8
20260505181418 87 182 9.0 13.0 0.00 0.00 0.00 59 1004.8
20260505180914 87 226 5.0 9.0 0.00 0.00 0.00 61 1005.2
20260505180411 87 131 7.0 11.0 0.00 0.00 0.00 61 1004.7
20260505175908 87 225 3.0 5.0 0.00 0.00 0.00 61 1004.9
20260505175404 87 195 7.0 11.0 0.00 0.00 0.00 60 1004.7
20260505174900 86 196 6.0 7.0 0.00 0.00 0.00 61 1004.6
20260505174358 86 230 7.0 10.0 0.00 0.00 0.00 62 1004.6
20260505173854 86 211 5.0 6.0 0.00 0.00 0.00 63 1004.7
20260505173350 85 171 8.0 10.0 0.00 0.00 0.00 63 1004.7
20260505172847 84 193 4.0 6.0 0.00 0.00 0.00 64 1004.8
20260505172345 85 224 9.0 10.0 0.00 0.00 0.00 63 1004.9
20260505171845 84 91 3.0 6.0 0.00 0.00 0.00 64 1005.0
20260505171342 84 196 8.0 10.0 0.00 0.00 0.00 65 1004.9
20260505170838 83 198 4.0 7.0 0.00 0.00 0.00 67 1005.0
20260505170335 82 221 6.0 7.0 0.00 0.00 0.00 67 1004.9
20260505165831 82 299 5.0 9.0 0.00 0.00 0.00 67 1004.9
20260505165326 83 141 7.0 9.0 0.00 0.00 0.00 67 1004.9
20260505164822 83 234 12.0 14.0 0.00 0.00 0.00 67 1004.8
20260505164319 82 211 7.0 8.0 0.00 0.00 0.00 68 1005.1
20260505163818 82 139 4.0 6.0 0.00 0.00 0.00 69 1004.9
20260505163316 81 220 9.0 11.0 0.00 0.00 0.00 69 1005.0
20260505162814 81 234 10.0 15.0 0.00 0.00 0.00 69 1004.9
20260505162310 81 72 7.0 11.0 0.00 0.00 0.00 70 1004.9
20260505161807 80 199 10.0 14.0 0.00 0.00 0.00 70 1004.8
20260505161304 80 311 11.0 14.0 0.00 0.00 0.00 70 1004.6
20260505160802 80 136 13.0 16.0 0.00 0.00 0.00 71 1004.8
20260505160259 80 197 13.0 17.0 0.00 0.00 0.00 71 1004.7
20260505153238 80 233 6.0 11.0 0.00 0.00 0.00 72 1004.5
20260505152735 80 232 9.0 11.0 0.00 0.00 0.00 71 1004.5
20260505152231 80 261 7.0 11.0 0.00 0.00 0.00 71 1004.4
20260505151726 79 185 10.0 14.0 0.00 0.00 0.00 73 1004.4
20260505151224 78 172 7.0 9.0 0.00 0.00 0.00 75 1004.5
20260505150720 78 112 8.0 9.0 0.00 0.00 0.00 75 1004.5
20260505150217 77 160 7.0 9.0 0.00 0.00 0.00 76 1004.6
20260505140645 74 160 12.0 18.0 0.00 0.00 0.00 82 1004.7
20260505140142 74 157 5.0 6.0 0.00 0.00 0.00 82 1004.6
20260505090211 72 39 7.0 9.0 0.00 0.00 0.00 84 1003.9
20260505085708 72 39 7.0 9.0 0.00 0.00 0.00 84 1003.9
20260505085206 72 286 7.0 9.0 0.00 0.00 0.00 84 1004.0
20260505084703 72 152 7.0 9.0 0.00 0.00 0.00 84 1004.1
20260505084202 72 205 7.0 10.0 0.00 0.00 0.00 83 1004.0
20260505083659 72 210 12.0 15.0 0.00 0.00 0.00 83 1004.1
20260505083155 72 163 9.0 11.0 0.00 0.00 0.00 83 1003.7
20260505082651 72 202 13.0 15.0 0.00 0.00 0.00 83 1003.9
20260505082148 72 179 5.0 7.0 0.00 0.00 0.00 82 1004.0
20260505081644 72 171 10.0 14.0 0.00 0.00 0.00 82 1003.8
20260505081142 72 134 5.0 7.0 0.00 0.00 0.00 82 1004.1
20260505080639 73 65 10.0 13.0 0.00 0.00 0.00 81 1003.8
20260505080135 73 247 9.0 14.0 0.00 0.00 0.00 81 1004.1
20260505075631 73 195 5.0 7.0 0.00 0.00 0.00 81 1004.0
20260505075128 73 205 10.0 11.0 0.00 0.00 0.00 81 1004.4
20260505074625 73 265 8.0 10.0 0.00 0.00 0.00 81 1004.1
20260505074122 73 199 12.0 17.0 0.00 0.00 0.00 80 1004.4
20260505073620 73 234 5.0 9.0 0.00 0.00 0.00 80 1004.4
20260505073118 73 323 6.0 10.0 0.00 0.00 0.00 79 1004.7
20260505072613 73 232 7.0 9.0 0.00 0.00 0.00 79 1004.7
20260505072110 73 203 7.0 9.0 0.00 0.00 0.00 79 1004.6
20260505071605 73 180 7.0 13.0 0.00 0.00 0.00 78 1004.7
20260505071103 74 194 9.0 15.0 0.00 0.00 0.00 78 1004.9
20260505070600 74 189 12.0 16.0 0.00 0.00 0.00 77 1004.8
20260505070056 74 211 6.0 7.0 0.00 0.00 0.00 77 1004.9
20260505065552 74 164 9.0 11.0 0.00 0.00 0.00 77 1005.2
20260505065049 74 188 5.0 7.0 0.00 0.00 0.00 76 1005.1
20260505064546 74 207 7.0 10.0 0.00 0.00 0.00 76 1005.0
20260505064044 74 196 10.0 11.0 0.00 0.00 0.00 76 1005.2
20260505063541 74 241 9.0 13.0 0.00 0.00 0.00 75 1005.3
20260505063037 74 220 7.0 10.0 0.00 0.00 0.00 75 1005.3
20260505062534 74 223 5.0 7.0 0.00 0.00 0.00 75 1005.1
20260505062031 74 217 4.0 5.0 0.00 0.00 0.00 75 1005.2
20260505061529 74 187 7.0 10.0 0.00 0.00 0.00 74 1005.4
20260505061026 74 182 11.0 14.0 0.00 0.00 0.00 74 1005.4
20260505060524 74 170 10.0 10.0 0.00 0.00 0.00 74 1005.2
20260505060020 74 201 7.0 10.0 0.00 0.00 0.00 73 1005.4
20260505055515 74 207 7.0 9.0 0.00 0.00 0.00 73 1005.2
20260505055012 75 133 8.0 9.0 0.00 0.00 0.00 73 1005.3
20260505054510 75 190 8.0 10.0 0.00 0.00 0.00 73 1005.3
20260505054008 75 287 8.0 11.0 0.00 0.00 0.00 73 1005.3
20260505053505 75 175 9.0 10.0 0.00 0.00 0.00 73 1005.3
20260505053001 75 217 7.0 11.0 0.00 0.00 0.00 72 1005.4
20260505052459 75 155 8.0 10.0 0.00 0.00 0.00 72 1005.6
20260505051955 75 225 9.0 11.0 0.00 0.00 0.00 72 1005.6
20260505051452 75 158 10.0 13.0 0.00 0.00 0.00 72 1005.7
20260505050951 75 233 15.0 22.0 0.00 0.00 0.00 72 1005.6
20260505050449 75 194 12.0 17.0 0.00 0.00 0.00 72 1005.4
20260505041416 75 213 8.0 10.0 0.00 0.00 0.00 70 1005.8
20260505040913 76 228 9.0 14.0 0.00 0.00 0.00 70 1005.8
20260505040411 76 187 8.0 11.0 0.00 0.00 0.00 70 1005.9
20260505035907 76 222 12.0 15.0 0.00 0.00 0.00 70 1005.7
20260505035403 76 259 7.0 8.0 0.00 0.00 0.00 70 1005.8
20260505034901 75 192 9.0 11.0 0.00 0.00 0.00 70 1005.8
20260505034357 76 191 11.0 18.0 0.00 0.00 0.00 70 1005.9
20260505033855 76 160 8.0 10.0 0.00 0.00 0.00 69 1005.8
20260505033351 76 207 8.0 11.0 0.00 0.00 0.00 69 1005.8
20260505032849 76 187 7.0 10.0 0.00 0.00 0.00 69 1005.9
20260505032345 76 224 8.0 10.0 0.00 0.00 0.00 69 1005.9
20260505031842 76 193 9.0 13.0 0.00 0.00 0.00 69 1006.1
20260505031339 76 140 9.0 13.0 0.00 0.00 0.00 69 1006.1
20260505030837 76 239 9.0 11.0 0.00 0.00 0.00 68 1005.9
20260505030332 76 201 11.0 14.0 0.00 0.00 0.00 68 1006.1
20260505025828 76 156 8.0 10.0 0.00 0.00 0.00 68 1005.8
20260505025326 76 182 7.0 9.0 0.00 0.00 0.00 68 1006.0
20260505024824 76 164 5.0 6.0 0.00 0.00 0.00 68 1005.9